Stations météo

Publicité
Gourdon, France (7535): Température de l'air & dewpoint: 11.02.2019 16:00:00 - 17.02.2019 16:00:00 (CET)Gourdon, France (7535): Température de l'air 5cm: 11.02.2019 16:00:00 - 17.02.2019 16:00:00 (CET)Gourdon, France (7535): Température de l'air -20cm & Température de l'air -100cm: 11.02.2019 16:00:00 - 17.02.2019 16:00:00 (CET)Gourdon, France (7535): Vitesse du vent & gusts: 11.02.2019 16:00:00 - 17.02.2019 16:00:00 (CET)Gourdon, France (7535): Direction du vent: 11.02.2019 16:00:00 - 17.02.2019 16:00:00 (CET)Gourdon, France (7535): reduced air pressure: 11.02.2019 16:00:00 - 17.02.2019 16:00:00 (CET)Gourdon, France (7535): visibility: 11.02.2019 16:00:00 - 17.02.2019 16:00:00 (CET)Gourdon, France (7535): Ensoleillement: 11.02.2019 16:00:00 - 17.02.2019 16:00:00 (CET)Gourdon, France (7535): Quantités de précipitations: 11.02.2019 16:00:00 - 17.02.2019 16:00:00 (CET)
Date & Time tt [°C] td [°C] tt 5cm [°C] tt -20cm [°C] tt -100cm [°C] ff [km/h] ff [knt] fx [km/h] fx [knt] dd ppp [hPa] vv [km] sd [min] rr [mm]
17.02.2019 16:00:00 18,1 1,6 22,4 7,0 8,3 13 7 24 13 SSE 1020,8 20 60 0,0
17.02.2019 15:00:00 18,1 1,6 22,5 6,7 8,3 13 7 26 14 SE 1021,2 20 60 0,0
17.02.2019 14:00:00 18,1 1,1 22,1 6,3 8,3 14 7 32 18 SSE 1021,8 20 60 0,0
17.02.2019 13:00:00 17,0 -0,7 20,7 6,1 8,3 14 8 32 18 SE 1022,7 20 60 0,0
17.02.2019 12:00:00 15,5 -3,0 18,1 5,9 8,3 16 9 34 18 SSE 1023,5 20 60 0,0
17.02.2019 11:00:00 13,7 -6,0 17,1 5,9 8,3 21 11 35 19 SSE 1023,5 20 60 0,0
17.02.2019 10:00:00 12,4 -7,6 12,0 6,1 8,3 12 6 21 12 SSE 1023,7 20 60 0,0
17.02.2019 09:00:00 9,2 -8,9 4,4 6,1 8,3 9 5 18 10 SE 1024,2 20 48 0,0
17.02.2019 08:00:00 7,1 -9,8 3,0 6,3 8,3 11 6 20 11 SE 1024,0 20 0 0,0
17.02.2019 07:00:00 7,5 -10,3 0,8 6,5 8,3 8 4 16 9 SE 1024,0 20 0 0,0
17.02.2019 06:00:00 8,4 -10,0 3,5 6,6 8,3 6 3 18 10 SE 1023,8 20 0 0,0
17.02.2019 05:00:00 8,7 -10,3 4,9 6,7 8,2 11 6 26 14 SE 1023,3 20 0 0,0
17.02.2019 04:00:00 9,2 -10,4 6,3 6,8 8,2 13 7 24 13 SE 1023,5 20 0 0,0
17.02.2019 03:00:00 9,9 -10,9 5,4 7,0 8,2 8 4 22 12 SE 1023,7 20 0 0,0
17.02.2019 02:00:00 9,8 -9,9 6,3 7,1 8,2 11 6 21 11 SE 1024,0 20 0 0,0
17.02.2019 01:00:00 10,1 -9,6 6,1 7,3 8,2 11 6 21 11 SE 1024,2 20 0 0,0
17.02.2019 00:00:00 10,5 -8,7 5,5 7,5 8,2 9 5 16 9 SE 1024,2 20 0 0,0
16.02.2019 23:00:00 10,3 -7,4 5,4 7,6 8,2 8 5 16 9 SE 1024,7 20 0 0,0
16.02.2019 22:00:00 9,9 -6,5 5,9 7,7 8,2 12 7 16 9 ESE 1024,9 20 0 0,0
16.02.2019 21:00:00 10,6 -5,0 6,7 7,8 8,2 11 6 17 9 SE 1024,9 20 0 0,0
16.02.2019 20:00:00 10,7 -2,7 7,3 7,8 8,3 11 6 21 12 SE 1025,0 20 0 0,0
16.02.2019 19:00:00 13,8 -2,6 8,7 7,7 8,3 6 4 14 8 SE 1024,6 20 0 0,0
16.02.2019 18:00:00 16,9 -3,3 13,2 7,5 8,3 9 5 21 12 SSE 1024,0 20 24 0,0
16.02.2019 17:00:00 18,6 -3,6 22,0 7,2 8,2 13 7 23 12 S 1024,3 20 60 0,0
16.02.2019 16:00:00 18,8 -2,8 22,7 6,8 8,3 10 6 22 12 SSE 1024,9 20 60 0,0
16.02.2019 15:00:00 18,0 -1,8 21,5 6,5 8,3 11 6 29 16 SSE 1025,7 20 60 0,0
16.02.2019 14:00:00 17,0 -2,2 21,0 6,1 8,3 15 8 31 17 SSE 1026,6 20 60 0,0
16.02.2019 13:00:00 15,3 0,7 19,6 5,9 8,2 3 1 10 5 ESE 1027,6 20 60 0,0
16.02.2019 12:00:00 11,0 2,8 15,4 5,7 8,3 6 3 9 5 NW 1028,9 20 60 0,0
16.02.2019 11:00:00 7,6 2,3 14,0 5,7 8,3 4 2 6 3 WNW 1029,5 20 60 0,0
16.02.2019 10:00:00 5,9 1,6 7,8 5,8 8,2 2 1 5 3 NNW 1029,6 20 60 0,0
16.02.2019 09:00:00 2,8 -0,5 -1,5 6,0 8,2 0 0 8 5 N 1029,9 20 44 0,0
16.02.2019 08:00:00 0,6 -1,8 -2,5 6,1 8,2 6 4 10 6 SE 1029,7 20 0 0,0
16.02.2019 07:00:00 0,3 -1,0 -3,1 6,3 8,2 0 0 8 5 N 1029,6 20 0 0,0
16.02.2019 06:00:00 1,3 0,7 -2,6 6,4 8,2 7 4 9 5 ESE 1029,2 15 0 0,0
16.02.2019 05:00:00 2,1 1,2 -2,0 6,6 8,2 2 1 11 6 N 1029,1 20 0 0,0
16.02.2019 04:00:00 2,4 2,0 -0,9 6,7 8,2 10 5 13 7 ESE 1028,9 20 0 0,0
16.02.2019 03:00:00 2,4 -0,4 -0,9 6,9 8,2 3 2 11 6 SE 1029,2 20 0 0,0
16.02.2019 02:00:00 3,9 1,8 1,4 7,0 8,2 10 5 13 7 ESE 1029,1 20 0 0,0
16.02.2019 01:00:00 4,4 0,4 1,0 7,2 8,2 6 3 12 6 ESE 1029,1 20 0 0,0
16.02.2019 00:00:00 4,7 -0,7 0,7 7,4 8,2 7 4 10 5 SE 1029,0 20 0 0,0
15.02.2019 23:00:00 6,0 -1,9 2,4 7,5 8,2 8 4 10 6 SE 1028,9 20 0 0,0
15.02.2019 22:00:00 5,6 -2,7 2,2 7,6 8,2 8 5 11 6 SE 1028,8 20 0 0,0
15.02.2019 21:00:00 7,3 -3,6 2,9 7,7 8,2 7 4 11 6 SE 1028,4 20 0 0,0
15.02.2019 20:00:00 9,9 -3,4 3,5 7,7 8,2 7 4 9 5 SE 1028,0 20 0 0,0
15.02.2019 19:00:00 12,4 -4,3 4,1 7,6 8,2 3 2 12 6 SW 1027,4 20 0 0,0
15.02.2019 18:00:00 16,2 -5,0 11,8 7,4 8,2 4 2 9 5 WSW 1026,4 20 18 0,0
15.02.2019 17:00:00 19,8 -4,5 24,4 7,1 8,2 3 2 11 6 WSW 1025,9 20 60 0,0
15.02.2019 16:00:00 19,0 -3,8 24,1 6,7 8,2 6 3 19 10 S 1026,2 20 60 0,0
15.02.2019 15:00:00 18,4 -3,7 22,9 6,4 8,2 7 4 23 12 S 1026,6 20 60 0,0
15.02.2019 14:00:00 17,3 -7,3 22,1 6,0 8,2 13 7 25 13 SSE 1027,0 20 60 0,0
15.02.2019 13:00:00 16,8 -7,0 20,7 5,8 8,2 9 5 21 11 SE 1027,8 20 60 0,0
15.02.2019 12:00:00 13,8 -1,0 17,8 5,7 8,2 8 4 21 11 S 1028,6 20 60 0,0
15.02.2019 11:00:00 10,1 -0,1 15,8 5,7 8,2 4 2 8 4 NNW 1029,2 20 60 0,0
15.02.2019 10:00:00 10,2 -5,8 11,6 5,8 8,2 3 1 9 5 SSE 1029,1 20 60 0,0
15.02.2019 09:00:00 6,0 -9,1 -0,9 6,0 8,2 6 3 8 4 SE 1029,6 20 42 0,0
15.02.2019 08:00:00 4,7 -10,6 -0,4 6,1 8,2 2 1 11 6 S 1029,4 20 0 0,0
15.02.2019 07:00:00 5,6 -9,4 0,7 6,2 8,2 8 4 14 8 SE 1029,1 20 0 0,0
15.02.2019 06:00:00 5,1 -8,4 -0,4 6,4 8,2 10 5 13 7 ESE 1029,2 20 0 0,0
15.02.2019 05:00:00 4,8 -8,0 -0,4 6,6 8,2 8 4 13 7 SE 1028,9 20 0 0,0
15.02.2019 04:00:00 4,5 -6,4 1,3 6,7 8,2 8 4 15 8 ESE 1029,1 20 0 0,0
15.02.2019 03:00:00 5,3 -5,7 1,4 6,9 8,2 9 5 16 9 ESE 1029,5 20 0 0,0
15.02.2019 02:00:00 5,4 -4,2 1,4 7,1 8,2 12 6 19 11 SE 1029,7 20 0 0,0
15.02.2019 01:00:00 4,0 -2,2 0,9 7,2 8,2 10 6 12 7 ESE 1030,0 20 0 0,0
15.02.2019 00:00:00 5,7 -1,0 2,4 7,3 8,2 7 4 11 6 SE 1030,0 20 0 0,0
14.02.2019 23:00:00 7,8 -0,2 4,8 7,5 8,2 8 4 17 9 ESE 1030,0 20 0 0,0
14.02.2019 22:00:00 8,8 0,2 6,4 7,6 8,2 13 7 19 11 SE 1030,0 20 0 0,0
14.02.2019 21:00:00 9,0 0,7 5,8 7,6 8,2 11 6 21 12 SE 1029,7 20 0 0,0
14.02.2019 20:00:00 9,7 1,6 6,1 7,6 8,2 9 5 12 6 SE 1029,8 20 0 0,0
14.02.2019 19:00:00 12,0 2,2 6,9 7,5 8,2 6 4 12 7 ESE 1029,5 20 0 0,0
14.02.2019 18:00:00 14,5 2,7 11,9 7,3 8,2 9 5 19 11 SSE 1028,9 20 17 0,0
14.02.2019 17:00:00 16,0 3,4 19,3 7,0 8,2 9 5 22 12 SE 1028,8 20 60 0,0
14.02.2019 16:00:00 16,2 2,6 20,9 6,7 8,2 14 7 23 13 SSE 1029,0 20 60 0,0
14.02.2019 15:00:00 16,2 3,9 19,9 6,3 8,2 10 5 24 13 SE 1029,4 20 60 0,0
14.02.2019 14:00:00 15,0 4,1 18,4 6,0 8,2 11 6 28 15 SSE 1030,5 20 60 0,0
14.02.2019 13:00:00 13,7 4,0 17,4 5,7 8,2 14 8 27 14 SE 1031,5 20 60 0,0
14.02.2019 12:00:00 12,4 3,6 14,4 5,6 8,2 14 8 35 19 SE 1032,2 20 60 0,0
14.02.2019 11:00:00 10,8 3,1 12,8 5,6 8,3 22 12 36 19 SE 1032,3 20 60 0,0
14.02.2019 10:00:00 9,2 2,5 9,4 5,6 8,3 14 8 26 14 SE 1032,5 20 60 0,0
14.02.2019 09:00:00 6,7 1,2 3,4 5,7 8,3 11 6 21 11 SE 1032,9 20 41 0,0
14.02.2019 08:00:00 5,2 -0,2 3,4 5,8 8,3 11 6 23 12 SE 1033,1 20 0 0,0
14.02.2019 07:00:00 5,7 -0,4 3,0 5,9 8,3 13 7 22 12 SE 1032,8 20 0 0,0
14.02.2019 06:00:00 5,3 -1,0 2,3 6,0 8,3 9 5 16 9 ESE 1032,9 20 0 0,0
14.02.2019 05:00:00 5,7 -0,8 3,3 6,1 8,3 9 5 21 11 ESE 1032,6 20 0 0,0
14.02.2019 04:00:00 5,7 -1,2 3,5 6,2 8,3 11 6 21 11 ESE 1032,7 20 0 0,0
14.02.2019 03:00:00 5,9 -0,6 4,0 6,3 8,3 15 8 23 12 SE 1032,9 20 0 0,0
14.02.2019 02:00:00 7,5 0,2 5,2 6,4 8,3 11 6 24 13 SE 1033,0 20 0 0,0
14.02.2019 01:00:00 7,6 0,6 5,1 6,5 8,3 13 7 23 13 SE 1032,9 20 0 0,0
14.02.2019 00:00:00 8,0 -0,3 5,0 6,6 8,3 12 6 19 11 SE 1032,8 20 0 0,0
13.02.2019 23:00:00 8,0 -1,5 5,1 6,8 8,3 10 6 28 15 SE 1032,8 20 0 0,0
13.02.2019 22:00:00 7,6 -2,7 4,8 6,9 8,3 16 9 24 13 SE 1032,5 20 0 0,0
13.02.2019 21:00:00 8,1 -3,7 3,7 7,0 8,3 12 6 26 14 SE 1032,2 20 0 0,0
13.02.2019 20:00:00 6,7 -4,4 2,7 7,0 8,3 9 5 15 8 SE 1032,4 20 0 0,0
13.02.2019 19:00:00 10,4 -5,2 2,5 6,9 8,3 5 3 6 4 SE 1031,4 20 0 0,0
13.02.2019 18:00:00 13,2 -7,0 8,5 6,7 8,4 5 3 13 7 S 1030,7 20 14 0,0
13.02.2019 17:00:00 14,4 -4,9 18,7 6,4 8,4 9 5 21 11 SSE 1030,6 20 60 0,0
13.02.2019 16:00:00 14,6 -2,8 19,5 6,1 8,4 10 6 22 12 SSE 1030,7 20 60 0,0
13.02.2019 15:00:00 14,3 -2,2 19,1 5,8 8,4 8 5 21 12 SSE 1030,8 20 60 0,0
13.02.2019 14:00:00 13,3 -3,1 17,2 5,5 8,4 11 6 23 12 SSE 1031,1 20 60 0,0
13.02.2019 13:00:00 12,1 -3,3 16,0 5,3 8,4 13 7 23 13 SSE 1031,7 20 60 0,0
13.02.2019 12:00:00 10,3 -2,4 14,5 5,2 8,4 11 6 22 12 SSE 1032,2 20 60 0,0
13.02.2019 11:00:00 8,2 -1,4 10,2 5,3 8,4 8 5 22 12 SE 1032,5 20 60 0,0
13.02.2019 10:00:00 4,7 -0,5 4,0 5,5 8,4 9 5 14 8 SE 1032,9 19 60 0,0
13.02.2019 09:00:00 -0,4 -0,8 -5,1 5,6 8,4 0 0 6 3 N 1033,8 13 39 0,0
13.02.2019 08:00:00 -2,0 -2,8 -5,1 5,7 8,4 0 0 8 4 N 1033,7 10 0 0,0
13.02.2019 07:00:00 -1,8 -2,2 -5,2 5,9 8,4 2 1 13 7 NNE 1033,4 19 0 0,0
13.02.2019 06:00:00 -1,9 -2,6 -5,3 6,0 8,4 2 1 6 4 NE 1033,5 10 0 0,0
13.02.2019 05:00:00 -0,7 -1,4 -3,8 6,2 8,4 4 2 10 5 ESE 1033,0 20 0 0,0
13.02.2019 04:00:00 -1,1 -1,7 -4,3 6,3 8,4 5 3 8 4 ESE 1033,4 20 0 0,0
13.02.2019 03:00:00 -1,1 -2,1 -3,6 6,5 8,4 2 1 5 3 ESE 1033,5 20 0 0,0
13.02.2019 02:00:00 1,0 -0,6 -2,6 6,7 8,4 4 2 7 4 N 1033,8 20 0 0,0
13.02.2019 01:00:00 0,6 -0,7 -2,4 6,9 8,4 0 0 8 5 N 1034,3 20 0 0,0
13.02.2019 00:00:00 1,3 0,0 -2,0 7,0 8,4 4 2 8 5 NNE 1034,5 20 0 0,0
12.02.2019 23:00:00 1,4 -0,7 -1,2 7,2 8,4 6 4 10 5 SE 1034,8 20 0 0,0
12.02.2019 22:00:00 2,5 -0,1 -0,8 7,3 8,4 0 0 6 4 N 1034,7 20 0 0,0
12.02.2019 21:00:00 2,7 -0,2 -0,5 7,5 8,4 4 2 4 2 WSW 1034,5 20 0 0,0
12.02.2019 20:00:00 4,9 -0,1 1,3 7,5 8,4 3 2 10 5 NW 1034,4 20 0 0,0
12.02.2019 19:00:00 7,9 0,1 4,3 7,5 8,4 5 3 9 5 NW 1033,7 20 0 0,0
12.02.2019 18:00:00 8,8 0,7 6,6 7,3 8,5 4 2 12 7 NW 1033,4 20 12 0,0
12.02.2019 17:00:00 10,4 1,7 16,0 7,0 8,5 4 2 12 7 N 1033,3 20 60 0,0
12.02.2019 16:00:00 9,9 2,0 17,2 6,7 8,4 6 3 20 11 N 1033,8 20 60 0,0
12.02.2019 15:00:00 8,5 2,5 15,3 6,5 8,5 9 5 19 11 N 1034,4 20 60 0,0
12.02.2019 14:00:00 6,7 2,0 13,5 6,2 8,5 8 4 15 8 N 1035,3 20 60 0,0
12.02.2019 13:00:00 5,5 4,5 11,4 6,0 8,5 7 4 13 7 N 1036,2 20 60 0,0
12.02.2019 12:00:00 3,1 3,1 5,8 6,0 8,5 6 3 11 6 N 1037,2 0,8 50 0,0
12.02.2019 11:00:00 0,9 0,9 3,0 6,0 8,5 4 2 9 5 NNE 1037,4 0,1 40 0,0
12.02.2019 10:00:00 -0,4 -0,4 -0,7 6,1 8,4 4 2 6 3 NNW 1037,7 0,1 50 0,0
12.02.2019 09:00:00 -1,5 -1,5 -1,6 6,3 8,5 2 1 13 7 ENE 1037,4 0,1 13 0,0
12.02.2019 08:00:00 -1,3 -1,3 -3,1 6,4 8,5 8 4 14 8 NW 1036,7 0,2 0 0,0
12.02.2019 07:00:00 0,0 0,0 -2,5 6,6 8,5 3 2 6 3 ENE 1036,5 0,1 0 0,0
12.02.2019 06:00:00 -0,4 -0,4 -3,0 6,7 8,5 3 2 9 5 ESE 1036,0 9 0 0,0
12.02.2019 05:00:00 -0,3 -0,3 -2,3 6,9 8,5 4 2 11 6 SSE 1035,5 10 0 0,0
12.02.2019 04:00:00 0,3 0,3 -1,4 7,1 8,5 6 4 11 6 SE 1035,3 9 0 0,0
12.02.2019 03:00:00 0,3 0,2 -1,6 7,2 8,4 6 3 10 5 SE 1035,6 10 0 0,0
12.02.2019 02:00:00 1,0 0,7 -1,1 7,3 8,4 5 3 9 5 SSE 1035,3 11 0 0,0
12.02.2019 01:00:00 2,1 1,5 -0,2 7,4 8,4 3 2 7 4 SSW 1035,3 10 0 0,0
12.02.2019 00:00:00 4,2 3,3 1,0 7,6 8,5 3 1 5 3 WSW 1034,6 20 0 0,0
11.02.2019 23:00:00 4,7 3,7 2,6 7,7 8,5 0 0 6 4 N 1034,6 20 0 0,0
11.02.2019 22:00:00 5,5 3,5 3,2 7,8 8,5 2 1 10 5 N 1033,7 20 0 0,0
11.02.2019 21:00:00 6,0 3,3 2,1 7,8 8,5 6 3 11 6 NNW 1033,3 20 0 0,0
11.02.2019 20:00:00 5,8 3,0 2,3 7,8 8,4 2 1 11 6 WNW 1032,8 20 0 0,0
11.02.2019 19:00:00 6,7 3,5 5,1 7,8 8,4 5 3 22 12 NW 1031,8 20 0 0,0
11.02.2019 18:00:00 7,7 4,1 7,3 7,7 8,5 6 4 14 7 NW 1031,0 20 0 0,0
11.02.2019 17:00:00 7,7 3,7 6,7 7,5 8,4 7 4 46 25 NNW 1030,5 20 9 0,2
11.02.2019 16:00:00 10,2 2,5 12,2 7,3 8,4 12 6 32 18 NW 1029,3 20 37 0,0

tt = Température de l'air
td = dewpoint
tt 5cm = Température de l'air 5cm
tt -20cm = Température de l'air -20cm
tt -100cm = Température de l'air -100cm
ff = Vitesse du vent
fx = gusts
dd = Direction du vent
ppp = reduced air pressure
vv = visibility
sd = Ensoleillement
rr = Quantités de précipitations

stations d'obs. à proximité